Location: Avully
(45.9633°N, 6.0228°E)
Time: 12:29:16
(UTC+00:00)

Cosmos 405 Rocket - Pass Details

Date: 23 May 2024
Orbit: 456 x 503 km, 81.3° (Epoch: 16 June)

Event Time Altitude Azimuth Distance (km) Brightness Sun altitude
Rises 03:08:14 0° 342° (NNW) 2,518 6.5 -7.5°
Reaches altitude 10° 03:10:22 10° 336° (NNW) 1,644 5.5 -7.2°
Maximum altitude 03:13:47 42° 264° (W) 689 3.0 -6.7°
Drops below altitude 10° 03:17:14 10° 193° (SSW) 1,657 4.8 -6.2°
Sets 03:19:24 0° 186° (S) 2,541 5.8 -6.0°
